SITRO-AIS 11 (SHEFFER)

Last updated on Thu Mar 05 2026 00:04:02 GMT+0000 (Coordinated Universal Time)

1 57208U 23091AU 26063.64711257 .00025976 00000+0 77218-3 0 9993 2 57208 97.5205 132.3536 0008183 86.0843 274.1335 15.34704469148735
UTC large
Height (km)
Speed (km/s)
/
Latitude / Longitude
Inclination (degrees)
Orbital Period (minutes)
Azimuth
Elevation
Range (km)
Doppler Factor

Next 0 passes for location: London (51.5072 / 0.1276)

Sorry there are no passes over London.